sat.trackr.live / text

‹ back to catalog

STARLINK-34096

NORAD 64043 · 2025-102X

PAYLOAD ACTIVE UNKNOWN

§ Identity

Operator
Country
US
Launch date
2025-05-16
Launch site
AFWTR
Launch vehicle
Mass (kg)
RCS (m²)

Purposes: comms

External: N2YO · Heavens-Above · Gunter

§ Orbital elements

Epoch: 2026-09-20T16:00:01.999584Z

Period
94.15 min
Inclination
70.0011°
Eccentricity
0.0003263
Mean motion
15.29548653 rev/d
Perigee alt
474.9 km
Apogee alt
479.4 km
Semi-major
6,855.3 km
B*
1.3268e-3
RAAN
340.3097°
Arg perigee
271.0860°
Mean anomaly
10.6618°
Rev number
568

§ Raw data

STARLINK-340961 64043U 25102X   26263.66668981  .00038171  00000+0  13268-2 0  99972 64043  70.0011 340.3097 0003263 271.0860  10.6618 15.29548653  5681

JSON: /api/v1/satellites/64043 · /tle

For live sub-satellite position, see the globe view (requires WebGL).

§ Visibility from observer

Set your observer location to see the next 7 days of passes ≥ 10°. The values pass through the URL so the page stays shareable.

No JS? Fill the form by hand. The geolocation button needs JavaScript.